Weather in Zenzevatka

Russia / Volgograd Oblast     49˚48′16″N   44˚32′49″E
temp.,
°C
wind,
m/s
gust,
m/s
humid.,
%
clouds,
%
prec.,
mm/h
press.,
hPa
HPBL,
m
17 january, sun
sun1700:00−14˚wsw61393100 0.0 1015392
03:00−16˚wsw5119486 0.0 1015223
06:00−18˚wsw47961 0.0 101598
09:00−18˚wnw349342 0.0 101584
12:00−15˚wnw238799 0.0 1016161
15:00−15˚s119090 0.0 101520
18:00−16˚n2290100 0.0 101630
21:00−16˚nne3591100 0.0 1016108
18 january, mon
mon1800:00−15˚ne4793100 0.0 1016146
03:00−17˚ne4695100 0.0 1015122
06:00−15˚ene4694100 0.1 1015252
09:00−15˚ne5896100 1.9 1015246
12:00−14˚ne3595100 2.4 1015248
15:00−13˚nne3594100 3.1 1014259
18:00−14˚nne2495100 0.1 101687
21:00−16˚nne2296100 0.1 101620
19 january, tue
tue1900:00−15˚nw2296100 0.1 101722
03:00−17˚nnw2395100 0.1 101721
06:00−18˚wnw229675 0.0 101820
09:00−18˚wnw129674 0.0 101820
12:00−15˚w239379 0.0 1018208
15:00−16˚wsw349683 0.1 1017102
18:00−17˚w339698 0.0 101840
21:00−20˚w339994 0.0 101823
20 january, wed
wed2000:00−21˚w349972 0.0 101929
03:00−21˚w449876 0.0 102073
06:00−20˚w469780 0.0 1022101
09:00−21˚w469781 0.0 1023113
12:00−18˚w479241 0.0 1024289
15:00−18˚w379499 0.1 1023290
18:00−21˚wnw349873 0.0 102535
21:00−22˚wnw349745 0.0 102632
21 january, thu
thu2100:00−23˚wnw349710 0.0 102735
03:00−23˚wnw349610 0.0 102851
06:00−23˚wnw349621 0.0 102956
09:00−22˚wnw349610 0.0 103069
12:00−17˚w46930 0.0 1030223
15:00−16˚wsw369419 0.0 1029178
18:00−18˚wsw44960 0.0 102955
21:00−18˚sw479031 0.0 1029114